When you browse on this site, cookies collect data to enhance your experience and personalize the content and advertising you see.
Visit our Privacy Policy to learn more. By continuing to use the site, you agree to this use of cookies and data.
  • In United Kingdom
  • List of Countries
  • For 7 days
  • Water Temperature
  • Satellite Maps
  • Weather Map
  • Weather Widgets
  • user-avatar
    Login

    Hourly Weather Kinshasa

    Today, 21 May, Tuesday

    Time Temperature Precipitation Wind Pressure Humidity
    00:00 +24°C° 0.3 mm 1 mps 708 mmHg 95%
    01:00 +23°C° 0.3 mm 1 mps 708 mmHg 96%
    02:00 +23°C° 0.4 mm 1 mps 707 mmHg 97%
    03:00 +23°C° 0.4 mm 1 mps 707 mmHg 97%
    04:00 +23°C° 0.4 mm 1 mps 707 mmHg 98%
    05:00 +23°C° 0 mm 1 mps 707 mmHg 97%
    06:00 +23°C° 0 mm 1 mps 707 mmHg 96%
    07:00 +24°C° 0 mm 1 mps 708 mmHg 95%
    08:00 +26°C° 0.3 mm 1 mps 708 mmHg 88%
    09:00 +28°C° 0.3 mm 1 mps 708 mmHg 82%
    10:00 +30°C° 0.3 mm 1 mps 709 mmHg 75%
    11:00 +30°C° 0.3 mm 0 mps 708 mmHg 65%
    12:00 +33°C° 0.3 mm 0 mps 708 mmHg 54%
    13:00 +35°C° 0.3 mm 0 mps 708 mmHg 43%
    14:00 +34°C° 0 mm 0 mps 707 mmHg 45%
    15:00 +32°C° 0 mm 0 mps 707 mmHg 47%
    16:00 +33°C° 0 mm 1 mps 706 mmHg 49%
    17:00 +29°C° 0 mm 0 mps 706 mmHg 55%
    18:00 +27°C° 0 mm 0 mps 706 mmHg 61%
    19:00 +26°C° 0 mm 0 mps 706 mmHg 67%
    20:00 +25°C° 0 mm 0 mps 706 mmHg 70%
    21:00 +26°C° 0 mm 1 mps 707 mmHg 74%
    22:00 +25°C° 0 mm 1 mps 707 mmHg 78%
    23:00 +25°C° 0 mm 1 mps 707 mmHg 82%

    Tomorrow, 22 May, Wednesday

    Time Temperature Precipitation Wind Pressure Humidity
    00:00 +24°C° 0 mm 1 mps 707 mmHg 86%
    01:00 +24°C° 0 mm 1 mps 707 mmHg 90%
    02:00 +23°C° 1.2 mm 1 mps 707 mmHg 92%
    03:00 +23°C° 1.2 mm 1 mps 707 mmHg 95%
    04:00 +22°C° 1.2 mm 1 mps 707 mmHg 98%
    05:00 +23°C° 0.4 mm 1 mps 707 mmHg 97%
    06:00 +23°C° 0.4 mm 2 mps 708 mmHg 97%
    07:00 +23°C° 0.4 mm 2 mps 708 mmHg 96%
    08:00 +26°C° 0.2 mm 2 mps 708 mmHg 87%
    09:00 +28°C° 0.2 mm 2 mps 709 mmHg 79%
    10:00 +30°C° 0.2 mm 2 mps 709 mmHg 70%
    11:00 +31°C° 0.4 mm 2 mps 709 mmHg 64%
    12:00 +32°C° 0.4 mm 2 mps 708 mmHg 58%
    13:00 +34°C° 0.4 mm 2 mps 708 mmHg 52%
    14:00 +34°C° 0.1 mm 2 mps 707 mmHg 54%
    15:00 +32°C° 0.1 mm 1 mps 707 mmHg 56%
    16:00 +32°C° 0.1 mm 1 mps 706 mmHg 57%
    17:00 +30°C° 0.1 mm 1 mps 706 mmHg 63%
    18:00 +29°C° 0.1 mm 1 mps 706 mmHg 68%
    19:00 +27°C° 0.1 mm 1 mps 706 mmHg 73%
    20:00 +26°C° 0.7 mm 1 mps 706 mmHg 79%
    21:00 +25°C° 0.7 mm 1 mps 707 mmHg 84%
    22:00 +22°C° 0.7 mm 0 mps 708 mmHg 89%
    23:00 +22°C° 1.3 mm 0 mps 708 mmHg 92%

    Day after tomorrow, 23 May, Thursday

    Time Temperature Precipitation Wind Pressure Humidity
    00:00 +22°C° 1.3 mm 0 mps 708 mmHg 94%
    01:00 +21°C° 1.3 mm 0 mps 707 mmHg 96%
    02:00 +21°C° 0.3 mm 0 mps 707 mmHg 96%
    03:00 +21°C° 0.3 mm 0 mps 707 mmHg 96%
    04:00 +21°C° 0.3 mm 0 mps 707 mmHg 96%
    05:00 +21°C° 0 mm 0 mps 707 mmHg 96%
    06:00 +21°C° 0 mm 0 mps 708 mmHg 96%
    07:00 +23°C° 0 mm 1 mps 708 mmHg 96%
    08:00 +24°C° 0.1 mm 1 mps 708 mmHg 94%
    09:00 +25°C° 0.1 mm 1 mps 709 mmHg 92%
    10:00 +26°C° 0.1 mm 2 mps 709 mmHg 91%
    11:00 +28°C° 0 mm 2 mps 709 mmHg 77%
    12:00 +31°C° 0 mm 1 mps 708 mmHg 63%
    13:00 +34°C° 0 mm 1 mps 708 mmHg 49%
    14:00 +34°C° 0 mm 1 mps 708 mmHg 49%
    15:00 +31°C° 0 mm 0 mps 707 mmHg 49%
    16:00 +31°C° 0 mm 0 mps 707 mmHg 49%
    17:00 +30°C° 1 mm 1 mps 707 mmHg 63%
    18:00 +27°C° 1 mm 1 mps 707 mmHg 78%
    19:00 +25°C° 1 mm 2 mps 707 mmHg 92%
    20:00 +24°C° 0.8 mm 2 mps 707 mmHg 93%
    21:00 +24°C° 0.8 mm 1 mps 708 mmHg 94%
    22:00 +24°C° 0.8 mm 1 mps 708 mmHg 96%
    23:00 +23°C° 0 mm 1 mps 707 mmHg 96%

    24 May, Friday

    Time Temperature Precipitation Wind Pressure Humidity
    00:00 +23°C° 0 mm 1 mps 707 mmHg 96%
    01:00 +23°C° 0 mm 1 mps 706 mmHg 97%
    02:00 +21°C° 0 mm 0 mps 706 mmHg 97%
    03:00 +21°C° 0 mm 0 mps 706 mmHg 97%
    04:00 +20°C° 0 mm 0 mps 706 mmHg 97%
    05:00 +21°C° 0 mm 0 mps 706 mmHg 96%
    06:00 +21°C° 0 mm 0 mps 707 mmHg 95%
    07:00 +22°C° 0 mm 0 mps 708 mmHg 94%
    08:00 +24°C° 0 mm 0 mps 708 mmHg 82%
    09:00 +29°C° 0 mm 1 mps 709 mmHg 71%
    10:00 +31°C° 0 mm 1 mps 709 mmHg 59%
    11:00 +33°C° 0 mm 1 mps 709 mmHg 54%
    12:00 +35°C° 0 mm 1 mps 708 mmHg 49%
    13:00 +36°C° 0 mm 1 mps 707 mmHg 43%
    14:00 +35°C° 0 mm 1 mps 706 mmHg 47%
    15:00 +32°C° 0 mm 0 mps 706 mmHg 51%
    16:00 +31°C° 0 mm 0 mps 705 mmHg 56%
    17:00 +29°C° 0 mm 0 mps 706 mmHg 59%
    18:00 +28°C° 0 mm 0 mps 706 mmHg 63%
    19:00 +28°C° 0 mm 1 mps 706 mmHg 66%
    20:00 +27°C° 0.4 mm 1 mps 707 mmHg 73%
    21:00 +26°C° 0.4 mm 1 mps 707 mmHg 81%
    22:00 +25°C° 0.4 mm 1 mps 707 mmHg 88%
    23:00 +24°C° 0.4 mm 1 mps 707 mmHg 90%

    25 May, Saturday

    Time Temperature Precipitation Wind Pressure Humidity
    00:00 +24°C° 0.4 mm 1 mps 707 mmHg 92%
    01:00 +24°C° 0.4 mm 1 mps 707 mmHg 93%
    02:00 +23°C° 0 mm 1 mps 706 mmHg 95%
    03:00 +23°C° 0 mm 1 mps 706 mmHg 96%
    04:00 +23°C° 0 mm 1 mps 706 mmHg 98%
    05:00 +23°C° 0 mm 1 mps 707 mmHg 97%
    06:00 +23°C° 0 mm 1 mps 708 mmHg 96%
    07:00 +22°C° 0 mm 0 mps 708 mmHg 95%
    08:00 +26°C° 0.4 mm 1 mps 709 mmHg 88%
    09:00 +27°C° 0.4 mm 1 mps 709 mmHg 82%
    10:00 +29°C° 0.4 mm 1 mps 709 mmHg 76%
    11:00 +30°C° 0.9 mm 1 mps 709 mmHg 74%
    12:00 +30°C° 0.9 mm 1 mps 708 mmHg 73%
    13:00 +30°C° 0.9 mm 1 mps 707 mmHg 71%
    14:00 +30°C° 0.2 mm 1 mps 707 mmHg 69%
    15:00 +30°C° 0.2 mm 1 mps 706 mmHg 66%
    16:00 +30°C° 0.2 mm 1 mps 706 mmHg 64%
    17:00 +29°C° 0.2 mm 1 mps 706 mmHg 71%
    18:00 +27°C° 0.2 mm 1 mps 707 mmHg 77%
    19:00 +24°C° 0.2 mm 0 mps 707 mmHg 84%
    20:00 +23°C° 2.9 mm 0 mps 707 mmHg 87%
    21:00 +25°C° 2.9 mm 1 mps 708 mmHg 91%
    22:00 +24°C° 2.9 mm 1 mps 708 mmHg 94%
    23:00 +24°C° 0 mm 1 mps 707 mmHg 94%

    26 May, Sunday

    Time Temperature Precipitation Wind Pressure Humidity
    00:00 +23°C° 0 mm 1 mps 707 mmHg 94%
    01:00 +23°C° 0 mm 1 mps 706 mmHg 95%
    02:00 +23°C° 0 mm 1 mps 706 mmHg 95%
    03:00 +23°C° 0 mm 1 mps 706 mmHg 96%
    04:00 +22°C° 0 mm 1 mps 706 mmHg 96%
    05:00 +23°C° 0 mm 1 mps 706 mmHg 96%
    06:00 +23°C° 0 mm 1 mps 707 mmHg 95%
    07:00 +23°C° 0 mm 1 mps 708 mmHg 95%
    08:00 +26°C° 0 mm 1 mps 708 mmHg 85%
    09:00 +28°C° 0 mm 2 mps 709 mmHg 75%
    10:00 +30°C° 0 mm 2 mps 709 mmHg 65%
    11:00 +31°C° 0 mm 2 mps 708 mmHg 59%
    12:00 +33°C° 0 mm 1 mps 708 mmHg 53%
    13:00 +35°C° 0 mm 1 mps 707 mmHg 46%
    14:00 +34°C° 0.1 mm 1 mps 706 mmHg 52%
    15:00 +33°C° 0.1 mm 1 mps 706 mmHg 57%
    16:00 +32°C° 0.1 mm 1 mps 705 mmHg 62%
    17:00 +30°C° 1.2 mm 1 mps 706 mmHg 71%
    18:00 +28°C° 1.2 mm 1 mps 706 mmHg 80%
    19:00 +25°C° 1.2 mm 1 mps 706 mmHg 89%
    20:00 +25°C° 6.2 mm 1 mps 707 mmHg 92%
    21:00 +24°C° 6.2 mm 1 mps 707 mmHg 94%
    22:00 +24°C° 6.2 mm 1 mps 708 mmHg 97%
    23:00 +24°C° 0.3 mm 1 mps 707 mmHg 97%
    Show more